| time (UTC) | temp F | wind direction | speed knots | gust knots | rain 1hr in | rain 24hr in | rain mn in | humidity % | barometer mb |
| 20260906172424 | 81 | 344 | 0.9 | 3.5 | 0.00 | 0.00 | 0.00 | 82 | 1018.2 |
| 20260906171919 | 81 | 198 | 1.7 | 2.6 | 0.00 | 0.00 | 0.00 | 81 | 1018.0 |
| 20260906171419 | 81 | 141 | 0.0 | 2.6 | 0.00 | 0.00 | 0.00 | 81 | 1017.9 |
| 20260906170915 | 81 | 189 | 1.7 | 3.5 | 0.00 | 0.00 | 0.00 | 81 | 1017.9 |
| 20260906170411 | 81 | 358 | 1.7 | 5.2 | 0.00 | 0.00 | 0.00 | 80 | 1018.0 |
| 20260906165907 | 81 | 214 | 0.0 | 3.5 | 0.00 | 0.00 | 0.00 | 81 | 1018.2 |
| 20260906165406 | 82 | 293 | 2.6 | 6.1 | 0.00 | 0.00 | 0.00 | 79 | 1018.1 |
| 20260906164901 | 82 | 261 | 0.9 | 5.2 | 0.00 | 0.00 | 0.00 | 80 | 1018.0 |
| 20260906164400 | 82 | 219 | 1.7 | 3.5 | 0.00 | 0.00 | 0.00 | 78 | 1018.0 |
| 20260906163856 | 82 | 328 | 0.9 | 5.2 | 0.00 | 0.00 | 0.00 | 80 | 1018.0 |
| 20260906163352 | 82 | 98 | 2.6 | 6.1 | 0.00 | 0.00 | 0.00 | 79 | 1017.9 |
| 20260906162850 | 82 | 159 | 1.7 | 5.2 | 0.00 | 0.00 | 0.00 | 79 | 1018.0 |
| 20260906162349 | 82 | 153 | 3.5 | 6.1 | 0.00 | 0.00 | 0.00 | 78 | 1018.0 |
| 20260906161844 | 83 | 254 | 1.7 | 5.2 | 0.00 | 0.00 | 0.00 | 77 | 1018.0 |
| 20260906161344 | 82 | 267 | 1.7 | 2.6 | 0.00 | 0.00 | 0.00 | 77 | 1018.1 |
| 20260906160843 | 82 | 87 | 1.7 | 3.5 | 0.00 | 0.00 | 0.00 | 78 | 1017.9 |
| 20260906160337 | 82 | 32 | 1.7 | 2.6 | 0.00 | 0.00 | 0.00 | 78 | 1018.1 |
| 20260906155835 | 82 | 7 | 0.0 | 3.5 | 0.00 | 0.00 | 0.00 | 79 | 1018.1 |
| 20260906155328 | 82 | 194 | 1.7 | 2.6 | 0.00 | 0.00 | 0.00 | 78 | 1018.1 |
| 20260906154825 | 82 | 250 | 1.7 | 3.5 | 0.00 | 0.00 | 0.00 | 79 | 1018.2 |
| 20260906154320 | 82 | 126 | 0.9 | 1.7 | 0.00 | 0.00 | 0.00 | 79 | 1018.2 |
| 20260906153819 | 81 | 340 | 1.7 | 2.6 | 0.00 | 0.00 | 0.00 | 79 | 1018.2 |
| 20260906153318 | 82 | 204 | 0.9 | 6.1 | 0.00 | 0.00 | 0.00 | 79 | 1018.3 |
| 20260906152813 | 81 | 200 | 0.9 | 2.6 | 0.00 | 0.00 | 0.00 | 80 | 1018.2 |
| 20260906152308 | 82 | 208 | 1.7 | 2.6 | 0.00 | 0.00 | 0.00 | 78 | 1018.3 |
| 20260906151808 | 82 | 175 | 0.0 | 1.7 | 0.00 | 0.00 | 0.00 | 80 | 1018.3 |
| 20260906151303 | 82 | 174 | 0.9 | 3.5 | 0.00 | 0.00 | 0.00 | 78 | 1018.4 |
| 20260906150759 | 81 | 234 | 1.7 | 2.6 | 0.00 | 0.00 | 0.00 | 80 | 1018.4 |
| 20260906150254 | 80 | 5 | 0.9 | 5.2 | 0.00 | 0.00 | 0.00 | 81 | 1018.4 |
| 20260906145753 | 79 | 149 | 0.0 | 3.5 | 0.00 | 0.00 | 0.00 | 83 | 1018.4 |
| 20260906145251 | 79 | 133 | 0.9 | 3.5 | 0.00 | 0.00 | 0.00 | 83 | 1018.4 |
| 20260906144747 | 78 | 305 | 1.7 | 3.5 | 0.00 | 0.00 | 0.00 | 85 | 1018.5 |
| 20260906144242 | 77 | 3 | 0.9 | 2.6 | 0.00 | 0.00 | 0.00 | 86 | 1018.4 |
| 20260906143741 | 77 | 254 | 0.9 | 2.6 | 0.00 | 0.00 | 0.00 | 87 | 1018.4 |
| 20260906143238 | 77 | 152 | 0.9 | 1.7 | 0.00 | 0.00 | 0.00 | 86 | 1018.4 |
| 20260906142738 | 78 | 176 | 1.7 | 6.1 | 0.00 | 0.00 | 0.00 | 85 | 1018.4 |
| 20260906142233 | 78 | 238 | 0.9 | 1.7 | 0.00 | 0.00 | 0.00 | 86 | 1018.4 |
| 20260906141732 | 77 | 151 | 0.9 | 1.7 | 0.00 | 0.00 | 0.00 | 87 | 1018.5 |
| 20260906141227 | 76 | 178 | 0.0 | 0.9 | 0.00 | 0.00 | 0.00 | 90 | 1018.3 |
| 20260906140727 | 76 | 317 | 0.0 | 0.9 | 0.00 | 0.00 | 0.00 | 90 | 1018.2 |
| 20260906140221 | 75 | 302 | 3.5 | 5.2 | 0.00 | 0.00 | 0.00 | 90 | 1018.4 |
| 20260906135718 | 75 | 216 | 0.9 | 2.6 | 0.00 | 0.00 | 0.00 | 91 | 1018.3 |
| 20260906135214 | 75 | 230 | 0.0 | 2.6 | 0.00 | 0.00 | 0.00 | 92 | 1018.3 |
| 20260906134709 | 75 | 182 | 0.9 | 2.6 | 0.00 | 0.00 | 0.00 | 92 | 1018.3 |
| 20260906134205 | 75 | 332 | 1.7 | 1.7 | 0.00 | 0.00 | 0.00 | 92 | 1018.2 |
| 20260906133700 | 74 | 165 | 1.7 | 2.6 | 0.00 | 0.00 | 0.00 | 92 | 1018.2 |
| 20260906133155 | 74 | 292 | 0.0 | 0.0 | 0.00 | 0.00 | 0.00 | 94 | 1018.3 |
| 20260906132651 | 73 | 276 | 0.0 | 2.6 | 0.00 | 0.00 | 0.00 | 94 | 1018.2 |
| 20260906132146 | 73 | 359 | 0.9 | 2.6 | 0.00 | 0.00 | 0.00 | 94 | 1018.4 |
| 20260906131642 | 73 | 264 | 0.0 | 0.0 | 0.00 | 0.00 | 0.00 | 95 | 1018.2 |
| 20260906131136 | 73 | 39 | 0.0 | 0.9 | 0.00 | 0.00 | 0.00 | 95 | 1018.4 |
| 20260906130632 | 72 | 193 | 0.0 | 2.6 | 0.00 | 0.00 | 0.00 | 96 | 1018.3 |
| 20260906130127 | 72 | 251 | 0.0 | 0.0 | 0.00 | 0.00 | 0.00 | 96 | 1018.4 |
| 20260906125625 | 72 | 245 | 0.0 | 2.6 | 0.00 | 0.00 | 0.00 | 97 | 1018.2 |
| 20260906125123 | 71 | 200 | 0.0 | 1.7 | 0.00 | 0.00 | 0.00 | 97 | 1018.2 |
| 20260906124619 | 71 | 292 | 0.0 | 0.9 | 0.00 | 0.00 | 0.00 | 97 | 1018.0 |
| 20260906124114 | 71 | 198 | 0.0 | 1.7 | 0.00 | 0.00 | 0.00 | 97 | 1017.9 |
| 20260906123614 | 71 | 358 | 0.9 | 1.7 | 0.00 | 0.00 | 0.00 | 97 | 1017.9 |
| 20260906123109 | 71 | 317 | 2.6 | 5.2 | 0.00 | 0.00 | 0.00 | 98 | 1017.6 |
| 20260906122608 | 71 | 184 | 0.0 | 3.5 | 0.00 | 0.00 | 0.00 | 98 | 1017.8 |
| 20260906122104 | 71 | 147 | 0.0 | 0.9 | 0.00 | 0.00 | 0.00 | 98 | 1017.4 |
| 20260906121600 | 71 | 217 | 0.0 | 2.6 | 0.00 | 0.00 | 0.00 | 98 | 1017.4 |
| 20260906121056 | 71 | 172 | 0.0 | 0.9 | 0.00 | 0.00 | 0.00 | 98 | 1017.5 |
| 20260906120551 | 71 | 93 | 0.0 | 0.9 | 0.00 | 0.00 | 0.00 | 98 | 1017.5 |
| 20260906120048 | 71 | 159 | 0.0 | 1.7 | 0.00 | 0.00 | 0.00 | 98 | 1017.5 |
| 20260906115549 | 71 | 115 | 0.9 | 1.7 | 0.00 | 0.00 | 0.00 | 98 | 1017.4 |
| 20260906115044 | 71 | 311 | 0.0 | 0.9 | 0.00 | 0.00 | 0.00 | 98 | 1017.4 |
| 20260906114543 | 71 | 276 | 0.9 | 2.6 | 0.00 | 0.00 | 0.00 | 98 | 1017.2 |
| 20260906114039 | 71 | 288 | 0.0 | 2.6 | 0.00 | 0.00 | 0.00 | 98 | 1017.1 |
| 20260906113538 | 71 | 8 | 0.0 | 1.7 | 0.00 | 0.00 | 0.00 | 98 | 1017.1 |
| 20260906113033 | 71 | 264 | 0.0 | 1.7 | 0.00 | 0.00 | 0.00 | 98 | 1017.0 |
| 20260906112528 | 71 | 188 | 0.9 | 1.7 | 0.00 | 0.00 | 0.00 | 98 | 1017.0 |
| 20260906112025 | 71 | 224 | 0.0 | 0.9 | 0.00 | 0.00 | 0.00 | 98 | 1017.0 |
| 20260906111524 | 71 | 216 | 0.0 | 0.0 | 0.00 | 0.00 | 0.00 | 97 | 1016.9 |
| 20260906111020 | 71 | 200 | 0.0 | 1.7 | 0.00 | 0.00 | 0.00 | 97 | 1017.2 |
| 20260906110520 | 71 | 280 | 0.0 | 0.9 | 0.00 | 0.00 | 0.00 | 97 | 1017.3 |
| 20260906110019 | 71 | 178 | 0.9 | 2.6 | 0.00 | 0.00 | 0.00 | 97 | 1017.2 |
| 20260906105514 | 71 | 226 | 0.0 | 0.9 | 0.00 | 0.00 | 0.00 | 97 | 1017.3 |
| 20260906105010 | 71 | 329 | 0.9 | 0.9 | 0.00 | 0.00 | 0.00 | 97 | 1017.3 |
| 20260906104508 | 71 | 192 | 0.0 | 0.9 | 0.00 | 0.00 | 0.00 | 97 | 1017.2 |
| 20260906104003 | 71 | 174 | 0.0 | 0.9 | 0.00 | 0.00 | 0.00 | 97 | 1017.4 |
| 20260906103501 | 71 | 199 | 0.9 | 0.9 | 0.00 | 0.00 | 0.00 | 97 | 1017.2 |
| 20260906102956 | 71 | 193 | 0.0 | 0.9 | 0.00 | 0.00 | 0.00 | 97 | 1017.3 |
| 20260906102451 | 71 | 285 | 0.0 | 0.9 | 0.00 | 0.00 | 0.00 | 97 | 1017.1 |
| 20260906101950 | 71 | 298 | 0.9 | 0.9 | 0.00 | 0.00 | 0.00 | 97 | 1017.3 |
| 20260906101446 | 71 | 226 | 0.0 | 2.6 | 0.00 | 0.00 | 0.00 | 97 | 1017.2 |
| 20260906100946 | 72 | 179 | 0.9 | 0.9 | 0.00 | 0.00 | 0.00 | 97 | 1017.2 |
| 20260906100441 | 72 | 172 | 1.7 | 2.6 | 0.00 | 0.00 | 0.00 | 97 | 1017.2 |
| 20260906095935 | 72 | 50 | 0.9 | 1.7 | 0.00 | 0.00 | 0.00 | 97 | 1017.0 |
| 20260906095431 | 72 | 160 | 0.9 | 1.7 | 0.00 | 0.00 | 0.00 | 97 | 1017.2 |
| 20260906094926 | 72 | 200 | 0.0 | 0.0 | 0.00 | 0.00 | 0.00 | 97 | 1017.5 |
| 20260906094420 | 72 | 47 | 0.0 | 1.7 | 0.00 | 0.00 | 0.00 | 96 | 1017.3 |
| 20260906093916 | 72 | 343 | 1.7 | 2.6 | 0.00 | 0.00 | 0.00 | 96 | 1017.1 |
| 20260906093413 | 72 | 214 | 0.9 | 2.6 | 0.00 | 0.00 | 0.00 | 96 | 1017.0 |
| 20260906092912 | 72 | 283 | 0.0 | 2.6 | 0.00 | 0.00 | 0.00 | 96 | 1017.0 |
| 20260906092412 | 72 | 246 | 0.0 | 0.9 | 0.00 | 0.00 | 0.00 | 96 | 1017.0 |
| 20260906091908 | 72 | 216 | 0.0 | 1.7 | 0.00 | 0.00 | 0.00 | 96 | 1017.1 |
| 20260906091403 | 72 | 294 | 0.0 | 0.9 | 0.00 | 0.00 | 0.00 | 96 | 1016.8 |
| 20260906090900 | 72 | 322 | 0.0 | 3.5 | 0.00 | 0.00 | 0.00 | 96 | 1016.8 |
| 20260906090359 | 72 | 23 | 0.0 | 1.7 | 0.00 | 0.00 | 0.00 | 96 | 1016.6 |
| 20260906085854 | 72 | 310 | 0.0 | 2.6 | 0.00 | 0.00 | 0.00 | 95 | 1016.7 |
| 20260906085353 | 73 | 238 | 0.0 | 1.7 | 0.00 | 0.00 | 0.00 | 95 | 1016.5 |
| 20260906084848 | 73 | 13 | 3.5 | 7.0 | 0.00 | 0.00 | 0.00 | 95 | 1016.6 |
| 20260906084348 | 73 | 216 | 0.0 | 2.6 | 0.00 | 0.00 | 0.00 | 95 | 1016.8 |
| 20260906083842 | 73 | 326 | 0.0 | 0.9 | 0.00 | 0.00 | 0.00 | 95 | 1016.7 |
| 20260906083338 | 73 | 340 | 0.0 | 0.9 | 0.00 | 0.00 | 0.00 | 95 | 1016.7 |
| 20260906082838 | 73 | 322 | 0.0 | 1.7 | 0.00 | 0.00 | 0.00 | 94 | 1016.6 |
| 20260906082333 | 73 | 8 | 0.0 | 2.6 | 0.00 | 0.00 | 0.00 | 94 | 1016.6 |
| 20260906081829 | 73 | 260 | 0.0 | 0.0 | 0.00 | 0.00 | 0.00 | 94 | 1016.7 |
| 20260906081324 | 73 | 26 | 2.6 | 2.6 | 0.00 | 0.00 | 0.00 | 94 | 1016.7 |
| 20260906080820 | 73 | 180 | 0.0 | 2.6 | 0.00 | 0.00 | 0.00 | 94 | 1016.5 |
| 20260906080317 | 73 | 305 | 0.9 | 3.5 | 0.00 | 0.00 | 0.00 | 94 | 1016.5 |
| 20260906075816 | 73 | 9 | 0.9 | 1.7 | 0.00 | 0.00 | 0.00 | 94 | 1016.6 |
| 20260906075315 | 73 | 352 | 3.5 | 5.2 | 0.00 | 0.00 | 0.00 | 94 | 1016.6 |
| 20260906074811 | 73 | 53 | 0.0 | 2.6 | 0.00 | 0.00 | 0.00 | 94 | 1016.5 |
| 20260906074311 | 73 | 177 | 0.0 | 1.7 | 0.00 | 0.00 | 0.00 | 94 | 1016.4 |
| 20260906073810 | 74 | 193 | 0.9 | 2.6 | 0.00 | 0.00 | 0.00 | 94 | 1016.1 |
| 20260906073305 | 74 | 276 | 1.7 | 3.5 | 0.00 | 0.00 | 0.00 | 94 | 1016.5 |
| 20260906072801 | 74 | 271 | 0.9 | 1.7 | 0.00 | 0.00 | 0.00 | 95 | 1016.5 |
| 20260906072256 | 74 | 212 | 0.9 | 1.7 | 0.00 | 0.00 | 0.00 | 95 | 1016.6 |
| 20260906071752 | 74 | 355 | 0.9 | 1.7 | 0.00 | 0.00 | 0.00 | 94 | 1016.6 |
| 20260906071252 | 74 | 246 | 0.0 | 3.5 | 0.00 | 0.00 | 0.00 | 94 | 1016.6 |
| 20260906070749 | 74 | 141 | 0.0 | 2.6 | 0.00 | 0.00 | 0.00 | 94 | 1016.7 |
| 20260906070244 | 75 | 177 | 0.9 | 2.6 | 0.00 | 0.00 | 0.00 | 94 | 1016.6 |
| 20260906065744 | 75 | 235 | 0.9 | 6.1 | 0.00 | 0.00 | 0.00 | 94 | 1016.7 |
| 20260906065239 | 75 | 154 | 0.9 | 3.5 | 0.00 | 0.00 | 0.00 | 94 | 1016.7 |
| 20260906064735 | 75 | 321 | 0.0 | 1.7 | 0.00 | 0.00 | 0.00 | 94 | 1016.8 |
| 20260906064230 | 75 | 245 | 0.9 | 5.2 | 0.00 | 0.00 | 0.00 | 94 | 1016.9 |
| 20260906063725 | 75 | 219 | 0.0 | 0.9 | 0.00 | 0.00 | 0.00 | 94 | 1016.8 |
| 20260906063221 | 75 | 138 | 0.9 | 3.5 | 0.00 | 0.00 | 0.00 | 94 | 1016.7 |
| 20260906062716 | 75 | 193 | 0.0 | 2.6 | 0.00 | 0.00 | 0.00 | 94 | 1016.8 |
| 20260906062215 | 75 | 45 | 0.9 | 1.7 | 0.00 | 0.00 | 0.00 | 94 | 1016.8 |
| 20260906061711 | 75 | 186 | 0.9 | 2.6 | 0.00 | 0.00 | 0.00 | 94 | 1016.4 |
| 20260906061207 | 75 | 337 | 0.0 | 0.9 | 0.00 | 0.00 | 0.00 | 94 | 1016.5 |
| 20260906060702 | 76 | 95 | 0.9 | 2.6 | 0.00 | 0.00 | 0.00 | 95 | 1016.6 |
| 20260906060159 | 76 | 216 | 0.9 | 1.7 | 0.00 | 0.00 | 0.00 | 95 | 1016.7 |
| 20260906055655 | 76 | 173 | 0.0 | 2.6 | 0.00 | 0.00 | 0.00 | 96 | 1016.6 |
| 20260906055150 | 76 | 26 | 0.0 | 0.0 | 0.00 | 0.00 | 0.00 | 96 | 1016.7 |
| 20260906054645 | 76 | 170 | 0.0 | 2.6 | 0.00 | 0.00 | 0.00 | 96 | 1016.5 |
| 20260906054140 | 76 | 248 | 0.0 | 1.7 | 0.00 | 0.00 | 0.00 | 96 | 1016.5 |
| 20260906053637 | 76 | 12 | 0.0 | 1.7 | 0.00 | 0.00 | 0.00 | 96 | 1016.6 |
| 20260906053131 | 76 | 230 | 0.0 | 1.7 | 0.00 | 0.00 | 0.00 | 96 | 1016.5 |
| 20260906052627 | 77 | 11 | 1.7 | 2.6 | 0.00 | 0.00 | 0.00 | 96 | 1016.6 |
| 20260906052123 | 77 | 332 | 1.7 | 2.6 | 0.00 | 0.00 | 0.00 | 96 | 1016.7 |
| 20260906051619 | 77 | 307 | 0.9 | 1.7 | 0.00 | 0.00 | 0.00 | 95 | 1016.5 |
| 20260906051115 | 77 | 184 | 1.7 | 2.6 | 0.00 | 0.00 | 0.00 | 95 | 1016.5 |
| 20260906050610 | 77 | 231 | 0.9 | 2.6 | 0.00 | 0.00 | 0.00 | 95 | 1016.7 |
| 20260906050105 | 77 | 209 | 0.0 | 0.9 | 0.00 | 0.00 | 0.00 | 95 | 1016.5 |
| 20260906045603 | 77 | 27 | 1.7 | 2.6 | 0.00 | 0.00 | 0.00 | 95 | 1016.7 |
| 20260906045059 | 77 | 191 | 1.7 | 2.6 | 0.00 | 0.00 | 0.00 | 95 | 1016.5 |
| 20260906044555 | 77 | 202 | 0.9 | 5.2 | 0.00 | 0.00 | 0.00 | 95 | 1016.6 |
| 20260906044054 | 78 | 336 | 1.7 | 2.6 | 0.00 | 0.00 | 0.00 | 95 | 1016.7 |
| 20260906043550 | 78 | 247 | 0.9 | 3.5 | 0.00 | 0.00 | 0.00 | 95 | 1016.5 |
| 20260906043046 | 78 | 235 | 0.9 | 1.7 | 0.00 | 0.00 | 0.00 | 94 | 1016.4 |
| 20260906042545 | 78 | 10 | 1.7 | 1.7 | 0.00 | 0.00 | 0.00 | 94 | 1016.3 |
| 20260906042040 | 78 | 14 | 0.9 | 1.7 | 0.00 | 0.00 | 0.00 | 94 | 1016.3 |
| 20260906041536 | 78 | 22 | 1.7 | 3.5 | 0.00 | 0.00 | 0.00 | 93 | 1016.1 |
| 20260906041031 | 79 | 187 | 0.9 | 1.7 | 0.00 | 0.00 | 0.00 | 93 | 1015.9 |
| 20260906040526 | 79 | 188 | 0.0 | 1.7 | 0.00 | 0.00 | 0.00 | 93 | 1016.0 |
| 20260906040022 | 79 | 333 | 0.0 | 2.6 | 0.00 | 0.00 | 0.00 | 92 | 1015.9 |
| 20260906035516 | 79 | 5 | 0.9 | 1.7 | 0.00 | 0.00 | 0.00 | 92 | 1015.9 |
| 20260906035013 | 79 | 357 | 0.9 | 1.7 | 0.00 | 0.00 | 0.00 | 92 | 1016.1 |
| 20260906034513 | 80 | 332 | 0.0 | 3.5 | 0.00 | 0.00 | 0.00 | 91 | 1015.9 |
| 20260906034008 | 80 | 305 | 0.0 | 1.7 | 0.00 | 0.00 | 0.00 | 91 | 1015.8 |
| 20260906033508 | 80 | 17 | 0.9 | 1.7 | 0.00 | 0.00 | 0.00 | 91 | 1015.8 |
| 20260906033004 | 80 | 127 | 0.0 | 2.6 | 0.00 | 0.00 | 0.00 | 90 | 1015.9 |
| 20260906032501 | 80 | 341 | 0.0 | 3.5 | 0.00 | 0.00 | 0.00 | 90 | 1016.0 |
| 20260906032000 | 80 | 217 | 0.0 | 1.7 | 0.00 | 0.00 | 0.00 | 89 | 1015.9 |
| 20260906031456 | 81 | 342 | 0.9 | 2.6 | 0.00 | 0.00 | 0.00 | 89 | 1015.8 |
| 20260906030951 | 81 | 325 | 0.0 | 1.7 | 0.00 | 0.00 | 0.00 | 89 | 1015.9 |
| 20260906030446 | 81 | 333 | 0.0 | 1.7 | 0.00 | 0.00 | 0.00 | 88 | 1015.9 |
| 20260906025946 | 81 | 11 | 1.7 | 5.2 | 0.00 | 0.00 | 0.00 | 88 | 1015.6 |
| 20260906025446 | 81 | 199 | 0.0 | 2.6 | 0.00 | 0.00 | 0.00 | 88 | 1015.7 |
| 20260906024944 | 82 | 300 | 0.0 | 0.9 | 0.00 | 0.00 | 0.00 | 87 | 1015.6 |
| 20260906024444 | 82 | 20 | 0.9 | 1.7 | 0.00 | 0.00 | 0.00 | 87 | 1015.5 |
| 20260906023939 | 82 | 113 | 0.9 | 2.6 | 0.00 | 0.00 | 0.00 | 86 | 1015.3 |
| 20260906023436 | 82 | 224 | 0.0 | 1.7 | 0.00 | 0.00 | 0.00 | 86 | 1015.3 |
| 20260906022935 | 82 | 306 | 0.9 | 3.5 | 0.00 | 0.00 | 0.00 | 86 | 1015.2 |
| 20260906022431 | 82 | 246 | 0.0 | 5.2 | 0.00 | 0.00 | 0.00 | 86 | 1015.1 |
| 20260906021926 | 82 | 180 | 0.9 | 2.6 | 0.00 | 0.00 | 0.00 | 86 | 1015.0 |
| 20260906021427 | 82 | 314 | 0.9 | 1.7 | 0.00 | 0.00 | 0.00 | 85 | 1015.1 |
| 20260906020926 | 83 | 7 | 1.7 | 1.7 | 0.00 | 0.00 | 0.00 | 85 | 1015.1 |
| 20260906020421 | 83 | 200 | 1.7 | 5.2 | 0.00 | 0.00 | 0.00 | 85 | 1015.1 |
| 20260906015921 | 83 | 32 | 0.9 | 1.7 | 0.00 | 0.00 | 0.00 | 84 | 1014.8 |
| 20260906015421 | 83 | 263 | 0.9 | 2.6 | 0.00 | 0.00 | 0.00 | 84 | 1015.0 |
| 20260906014920 | 83 | 217 | 0.0 | 2.6 | 0.00 | 0.00 | 0.00 | 83 | 1014.8 |
| 20260906014420 | 83 | 320 | 0.0 | 1.7 | 0.00 | 0.00 | 0.00 | 83 | 1014.8 |
| 20260906013916 | 84 | 353 | 0.0 | 1.7 | 0.00 | 0.00 | 0.00 | 82 | 1014.7 |
| 20260906013412 | 84 | 249 | 0.0 | 1.7 | 0.00 | 0.00 | 0.00 | 82 | 1015.0 |
| 20260906012907 | 84 | 271 | 0.0 | 1.7 | 0.00 | 0.00 | 0.00 | 81 | 1014.8 |
| 20260906012402 | 84 | 0 | 0.9 | 2.6 | 0.00 | 0.00 | 0.00 | 81 | 1014.9 |
| 20260906011901 | 84 | 329 | 0.9 | 2.6 | 0.00 | 0.00 | 0.00 | 81 | 1014.7 |
| 20260906011356 | 84 | 14 | 1.7 | 2.6 | 0.00 | 0.00 | 0.00 | 81 | 1014.8 |
| 20260906010852 | 84 | 283 | 0.0 | 0.0 | 0.00 | 0.00 | 0.00 | 81 | 1014.6 |
| 20260906010348 | 84 | 219 | 0.0 | 0.9 | 0.00 | 0.00 | 0.00 | 80 | 1014.6 |
| 20260906005844 | 85 | 240 | 0.0 | 1.7 | 0.00 | 0.00 | 0.00 | 80 | 1014.6 |
| 20260906005343 | 85 | 161 | 0.0 | 0.0 | 0.00 | 0.00 | 0.00 | 79 | 1014.6 |
| 20260906004842 | 85 | 17 | 0.9 | 2.6 | 0.00 | 0.00 | 0.00 | 79 | 1014.7 |
| 20260906004342 | 85 | 259 | 0.0 | 0.9 | 0.00 | 0.00 | 0.00 | 78 | 1014.6 |
| 20260906003837 | 86 | 224 | 0.0 | 0.9 | 0.00 | 0.00 | 0.00 | 78 | 1014.5 |
| 20260906003332 | 86 | 347 | 0.9 | 2.6 | 0.00 | 0.00 | 0.00 | 77 | 1014.4 |
| 20260906002827 | 86 | 232 | 0.9 | 1.7 | 0.00 | 0.00 | 0.00 | 77 | 1014.4 |
| 20260906002327 | 86 | 272 | 0.9 | 2.6 | 0.00 | 0.00 | 0.00 | 76 | 1014.6 |
| 20260906001823 | 87 | 19 | 1.7 | 3.5 | 0.00 | 0.00 | 0.00 | 76 | 1014.3 |
| 20260906001318 | 87 | 44 | 0.9 | 1.7 | 0.00 | 0.00 | 0.00 | 76 | 1014.6 |
| 20260906000813 | 87 | 242 | 1.7 | 1.7 | 0.00 | 0.00 | 0.00 | 75 | 1014.5 |
| 20260906000307 | 87 | 31 | 1.7 | 3.5 | 0.00 | 0.00 | 0.00 | 75 | 1014.4 |
| 20260905235803 | 87 | 247 | 1.7 | 2.6 | 0.00 | 0.00 | 0.00 | 75 | 1014.3 |
| 20260905235306 | 87 | 295 | 1.7 | 2.6 | 0.00 | 0.00 | 0.00 | 75 | 1014.3 |
| 20260905234757 | 87 | 342 | 0.0 | 1.7 | 0.00 | 0.00 | 0.00 | 75 | 1014.4 |
| 20260905234252 | 87 | 146 | 1.7 | 2.6 | 0.00 | 0.00 | 0.00 | 75 | 1014.5 |
| 20260905233748 | 88 | 333 | 1.7 | 2.6 | 0.00 | 0.00 | 0.00 | 75 | 1014.4 |
| 20260905233248 | 88 | 327 | 0.9 | 1.7 | 0.00 | 0.00 | 0.00 | 75 | 1014.2 |
| 20260905232747 | 88 | 330 | 0.0 | 0.9 | 0.00 | 0.00 | 0.00 | 75 | 1014.3 |
| 20260905232244 | 88 | 284 | 0.9 | 5.2 | 0.00 | 0.00 | 0.00 | 75 | 1014.3 |
| 20260905231739 | 88 | 277 | 1.7 | 2.6 | 0.00 | 0.00 | 0.00 | 75 | 1014.2 |
| 20260905231234 | 88 | 332 | 1.7 | 5.2 | 0.00 | 0.00 | 0.00 | 74 | 1014.1 |
| 20260905230731 | 88 | 341 | 0.0 | 5.2 | 0.00 | 0.00 | 0.00 | 74 | 1014.3 |
| 20260905230228 | 89 | 348 | 0.9 | 5.2 | 0.00 | 0.00 | 0.00 | 73 | 1014.2 |
| 20260905225727 | 89 | 199 | 1.7 | 3.5 | 0.00 | 0.00 | 0.00 | 72 | 1014.2 |
| 20260905225223 | 89 | 53 | 2.6 | 3.5 | 0.00 | 0.00 | 0.00 | 71 | 1014.2 |
| 20260905224722 | 89 | 289 | 0.0 | 3.5 | 0.00 | 0.00 | 0.00 | 72 | 1014.3 |
| 20260905224217 | 89 | 227 | 0.9 | 3.5 | 0.00 | 0.00 | 0.00 | 71 | 1014.2 |
| 20260905223713 | 90 | 132 | 0.9 | 3.5 | 0.00 | 0.00 | 0.00 | 71 | 1014.4 |
| 20260905223210 | 90 | 223 | 0.9 | 3.5 | 0.00 | 0.00 | 0.00 | 70 | 1014.3 |
| 20260905222706 | 90 | 292 | 1.7 | 2.6 | 0.00 | 0.00 | 0.00 | 70 | 1014.2 |
| 20260905222205 | 90 | 178 | 0.9 | 2.6 | 0.00 | 0.00 | 0.00 | 70 | 1014.3 |
| 20260905221701 | 90 | 359 | 0.9 | 3.5 | 0.00 | 0.00 | 0.00 | 69 | 1014.3 |
| 20260905221158 | 91 | 332 | 0.0 | 3.5 | 0.00 | 0.00 | 0.00 | 70 | 1014.3 |
| 20260905220653 | 90 | 186 | 0.9 | 0.9 | 0.00 | 0.00 | 0.00 | 70 | 1014.2 |
| 20260905220149 | 90 | 276 | 1.7 | 3.5 | 0.00 | 0.00 | 0.00 | 70 | 1014.3 |
| 20260905215648 | 90 | 209 | 0.9 | 1.7 | 0.00 | 0.00 | 0.00 | 70 | 1014.3 |
| 20260905215144 | 89 | 1 | 1.7 | 2.6 | 0.00 | 0.00 | 0.00 | 71 | 1014.3 |
| 20260905214641 | 90 | 27 | 1.7 | 3.5 | 0.00 | 0.00 | 0.00 | 70 | 1014.4 |
| 20260905214141 | 90 | 234 | 0.9 | 1.7 | 0.00 | 0.00 | 0.00 | 70 | 1014.3 |
| 20260905213636 | 90 | 150 | 0.9 | 1.7 | 0.00 | 0.00 | 0.00 | 71 | 1014.3 |
| 20260905213131 | 89 | 22 | 0.9 | 3.5 | 0.00 | 0.00 | 0.00 | 72 | 1014.4 |
| 20260905212626 | 89 | 344 | 0.9 | 1.7 | 0.00 | 0.00 | 0.00 | 71 | 1014.6 |
| 20260905212126 | 89 | 241 | 1.7 | 2.6 | 0.00 | 0.00 | 0.00 | 72 | 1014.7 |
| 20260905211621 | 89 | 26 | 1.7 | 2.6 | 0.00 | 0.00 | 0.00 | 71 | 1014.4 |
| 20260905211116 | 90 | 39 | 1.7 | 5.2 | 0.00 | 0.00 | 0.00 | 70 | 1014.3 |
| 20260905210613 | 89 | 191 | 2.6 | 3.5 | 0.00 | 0.00 | 0.00 | 70 | 1014.2 |
| 20260905210108 | 89 | 176 | 0.9 | 6.1 | 0.00 | 0.00 | 0.00 | 70 | 1014.2 |
| 20260905205607 | 90 | 242 | 0.9 | 1.7 | 0.00 | 0.00 | 0.00 | 69 | 1014.0 |
| 20260905205106 | 90 | 226 | 0.0 | 6.1 | 0.00 | 0.00 | 0.00 | 70 | 1014.1 |
| 20260905204601 | 90 | 15 | 0.9 | 3.5 | 0.00 | 0.00 | 0.00 | 69 | 1014.2 |
| 20260905204056 | 90 | 253 | 0.9 | 5.2 | 0.00 | 0.00 | 0.00 | 70 | 1014.3 |
| 20260905203555 | 90 | 322 | 2.6 | 6.1 | 0.00 | 0.00 | 0.00 | 70 | 1014.3 |
| 20260905203051 | 90 | 19 | 4.3 | 6.1 | 0.00 | 0.00 | 0.00 | 70 | 1014.3 |
| 20260905202546 | 90 | 149 | 1.7 | 9.6 | 0.00 | 0.00 | 0.00 | 70 | 1014.4 |
| 20260905202042 | 90 | 298 | 1.7 | 2.6 | 0.00 | 0.00 | 0.00 | 71 | 1014.5 |
| 20260905201537 | 91 | 54 | 0.9 | 2.6 | 0.00 | 0.00 | 0.00 | 71 | 1014.4 |
| 20260905201037 | 90 | 149 | 0.0 | 1.7 | 0.00 | 0.00 | 0.00 | 70 | 1014.6 |
| 20260905200532 | 90 | 312 | 1.7 | 2.6 | 0.00 | 0.00 | 0.00 | 73 | 1014.7 |
| 20260905200032 | 90 | 338 | 3.5 | 5.2 | 0.00 | 0.00 | 0.00 | 71 | 1014.7 |
| 20260905195526 | 90 | 238 | 0.0 | 2.6 | 0.00 | 0.00 | 0.00 | 73 | 1014.6 |
| 20260905195022 | 90 | 335 | 2.6 | 5.2 | 0.00 | 0.00 | 0.00 | 72 | 1014.8 |
| 20260905194521 | 90 | 34 | 1.7 | 2.6 | 0.00 | 0.00 | 0.00 | 72 | 1014.8 |
| 20260905194021 | 90 | 23 | 3.5 | 6.1 | 0.00 | 0.00 | 0.00 | 72 | 1015.1 |
| 20260905193515 | 89 | 46 | 0.9 | 1.7 | 0.00 | 0.00 | 0.00 | 74 | 1015.1 |
| 20260905193011 | 90 | 340 | 1.7 | 3.5 | 0.00 | 0.00 | 0.00 | 72 | 1015.1 |
| 20260905192506 | 90 | 216 | 0.0 | 3.5 | 0.00 | 0.00 | 0.00 | 73 | 1015.3 |
| 20260905192002 | 91 | 304 | 0.0 | 5.2 | 0.00 | 0.00 | 0.00 | 71 | 1015.4 |
| 20260905191501 | 91 | 6 | 1.7 | 3.5 | 0.00 | 0.00 | 0.00 | 70 | 1015.4 |
| 20260905191000 | 91 | 353 | 0.9 | 2.6 | 0.00 | 0.00 | 0.00 | 71 | 1015.7 |
| 20260905190458 | 90 | 2 | 0.0 | 1.7 | 0.00 | 0.00 | 0.00 | 71 | 1015.8 |
| 20260905185957 | 90 | 208 | 0.0 | 1.7 | 0.00 | 0.00 | 0.00 | 73 | 1015.9 |
| 20260905185452 | 90 | 302 | 0.9 | 3.5 | 0.00 | 0.00 | 0.00 | 73 | 1015.7 |
| 20260905184951 | 90 | 273 | 0.9 | 3.5 | 0.00 | 0.00 | 0.00 | 72 | 1016.0 |
| 20260905184446 | 91 | 243 | 1.7 | 3.5 | 0.00 | 0.00 | 0.00 | 72 | 1015.9 |
| 20260905183944 | 90 | 108 | 2.6 | 3.5 | 0.00 | 0.00 | 0.00 | 72 | 1016.0 |
| 20260905183439 | 90 | 345 | 2.6 | 5.2 | 0.00 | 0.00 | 0.00 | 73 | 1016.0 |
| 20260905182934 | 89 | 24 | 2.6 | 3.5 | 0.00 | 0.00 | 0.00 | 73 | 1016.0 |
| 20260905182433 | 89 | 189 | 0.9 | 2.6 | 0.00 | 0.00 | 0.00 | 74 | 1016.5 |
| 20260905181929 | 89 | 281 | 2.6 | 3.5 | 0.00 | 0.00 | 0.00 | 74 | 1016.1 |
| 20260905181429 | 90 | 10 | 0.9 | 5.2 | 0.00 | 0.00 | 0.00 | 73 | 1016.0 |
| 20260905180928 | 90 | 108 | 1.7 | 3.5 | 0.00 | 0.00 | 0.00 | 73 | 1016.0 |
| 20260905180423 | 89 | 288 | 2.6 | 5.2 | 0.00 | 0.00 | 0.00 | 72 | 1015.9 |
| 20260905175918 | 89 | 351 | 1.7 | 5.2 | 0.00 | 0.00 | 0.00 | 73 | 1016.4 |
| 20260905175417 | 88 | 223 | 0.9 | 5.2 | 0.00 | 0.00 | 0.00 | 75 | 1016.5 |
| 20260905174913 | 88 | 333 | 2.6 | 5.2 | 0.00 | 0.00 | 0.00 | 76 | 1016.5 |
| 20260905174409 | 88 | 217 | 0.9 | 3.5 | 0.00 | 0.00 | 0.00 | 77 | 1016.5 |
| 20260905173904 | 88 | 174 | 3.5 | 5.2 | 0.00 | 0.00 | 0.00 | 76 | 1016.3 |
| 20260905173400 | 90 | 325 | 1.7 | 5.2 | 0.00 | 0.00 | 0.00 | 73 | 1016.5 |
| 20260905172855 | 90 | 247 | 1.7 | 3.5 | 0.00 | 0.00 | 0.00 | 73 | 1016.4 |